Location: Unspecified
(0.0000°N, 0.0000°E)
Time: 17:50:11
(UTC+00:00)

Altair 2 - Visible Passes

Search period start: 15 May 2026 00:00
Search period end: 25 May 2026 00:00
Orbit: 702 x 2522 km, 96.4° (Epoch: 15 May)

Date Brightness Start Highest point End Pass type
(mag) Time Alt. Az. Time Alt. Az. Time Alt. Az.
15 May 10.3 19:22:08 10° NE 19:32:47 29° E 19:32:47 29° E visible
15 May 10.0 21:15:54 10° N 21:29:33 63° WNW 21:31:21 59° WSW visible
16 May 10.5 19:06:21 10° NE 19:15:37 22° E 19:15:37 22° E visible
16 May 9.8 20:58:27 10° N 21:12:23 75° WNW 21:14:10 68° SW visible
16 May 11.7 23:03:12 10° NW 23:07:32 12° WNW 23:11:46 10° W visible
17 May 10.7 18:51:16 10° ENE 18:58:22 16° E 18:58:24 16° E visible
17 May 9.7 20:41:10 10° N 20:55:11 89° W 20:56:58 73° SSW visible
17 May 11.5 22:42:59 10° NW 22:50:29 17° WNW 22:55:32 13° W visible
18 May 10.9 18:38:04 10° E 18:40:58 11° E 18:41:10 11° E visible
18 May 9.6 20:24:02 10° NNE 20:37:56 76° ESE 20:39:44 68° SSE visible
18 May 11.3 22:24:00 10° NNW 22:33:25 22° WNW 22:38:19 18° WSW visible
19 May 9.6 20:07:04 10° NNE 20:20:38 63° E 20:22:30 58° SE visible
19 May 11.0 22:05:33 10° NNW 22:16:21 29° WNW 22:21:03 23° WSW visible
20 May 9.7 19:50:17 10° NNE 20:03:17 51° E 20:05:13 48° SE visible
20 May 10.7 21:47:26 10° NNW 21:59:15 36° WNW 22:03:46 29° WSW visible
21 May 9.9 19:33:44 10° NE 19:45:54 41° E 19:47:56 38° ESE visible
21 May 10.4 21:29:34 10° N 21:42:09 45° WNW 21:46:29 35° WSW visible
22 May 10.1 19:17:26 10° NE 19:28:27 32° E 19:30:37 30° ESE visible
22 May 10.1 21:11:53 10° N 21:25:01 55° WNW 21:29:10 41° SW visible
23 May 10.3 19:01:31 10° NE 19:11:00 24° E 19:13:16 23° ESE visible
23 May 9.8 20:54:23 10° N 21:07:51 67° WNW 21:11:50 47° SW visible
24 May 10.5 18:46:11 10° ENE 18:53:30 18° E 18:55:55 16° ESE visible
24 May 9.6 20:37:02 10° N 20:50:38 81° WNW 20:54:28 51° SSW visible
24 May 11.6 22:40:47 10° NW 22:45:36 13° WNW 22:50:09 10° W visible
